AFR427 LIML-LTBS

Flight info

Callsign AFR427
Flight time N/A
Altitude 37000
Route ABSEM6AXLOGDI7A/35 LOGDI DCT BEPMA DCT PETAS DCT ANC DCT VAPUP DCT ORAKA DCT AMUGO DCT KONUV DCT RETRA DCT MAVAR DCT TALAS UN130 PIVOS UG802 IMR UN127 KEKIK
Aircraft A320/M-SDE3FGHIRWY/LB1

Departure

Time 2026-05-04 17:33
Airport Milano Linate Airport (LIML)

Arrival

Time N/A
Airport Dalaman International Airport (LTBS)
Time Latitude Longitude Altitude Speed Heading
2026-05-04 17:10 45.45977 9.27847 360 ft 0 kts 360°
2026-05-04 17:14 45.45911 9.27823 360 ft 4 kts 68°
2026-05-04 17:14 45.45908 9.27804 360 ft 1 kts 90°
2026-05-04 17:14 45.45908 9.27801 360 ft 0 kts 90°
2026-05-04 17:23 45.45908 9.27816 360 ft 6 kts 90°
2026-05-04 17:24 45.45908 9.27874 363 ft 5 kts 90°
2026-05-04 17:24 45.45765 9.27984 360 ft 15 kts 181°
2026-05-04 17:25 45.45616 9.27981 363 ft 24 kts 181°
2026-05-04 17:25 45.45282 9.27901 360 ft 25 kts 206°
2026-05-04 17:26 45.44925 9.27916 360 ft 27 kts 172°
2026-05-04 17:26 45.44373 9.27989 362 ft 25 kts 175°
2026-05-04 17:27 45.44078 9.28021 360 ft 22 kts 175°
2026-05-04 17:27 45.43773 9.28055 360 ft 18 kts 175°
2026-05-04 17:28 45.43528 9.28082 361 ft 12 kts 175°
2026-05-04 17:29 45.43461 9.28065 364 ft 0 kts 228°
2026-05-04 17:31 45.43443 9.27879 362 ft 17 kts 287°
2026-05-04 17:32 45.43539 9.27809 361 ft 0 kts 355°
2026-05-04 17:33 45.45330 9.27615 566 ft 153 kts 359°
2026-05-04 17:33 45.46338 9.27579 1236 ft 148 kts
2026-05-04 17:34 45.49971 9.28096 2036 ft 213 kts
2026-05-04 17:34 45.51397 9.28426 2967 ft 200 kts 17°
2026-05-04 17:35 45.53888 9.32795 4854 ft 215 kts 85°
2026-05-04 17:35 45.52738 9.37158 5056 ft 266 kts 140°
2026-05-04 17:35 45.51096 9.38369 5707 ft 270 kts 162°
2026-05-04 17:36 45.49333 9.39279 6665 ft 271 kts 155°
2026-05-04 17:36 45.47859 9.40891 7527 ft 274 kts 131°
2026-05-04 17:36 45.46774 9.43133 8419 ft 276 kts 126°
2026-05-04 17:36 45.45711 9.45407 9291 ft 277 kts 126°
2026-05-04 17:37 45.44634 9.47699 10144 ft 280 kts 127°
2026-05-04 17:37 45.43524 9.50051 10589 ft 297 kts 127°
2026-05-04 17:37 45.42321 9.52588 10789 ft 321 kts 127°
2026-05-04 17:37 45.41035 9.55289 11072 ft 339 kts 127°
2026-05-04 17:38 45.39713 9.58061 11644 ft 346 kts 127°
2026-05-04 17:38 45.38127 9.60640 12268 ft 348 kts 143°
2026-05-04 17:38 45.36117 9.62576 12908 ft 352 kts 150°
2026-05-04 17:38 45.34039 9.64439 13541 ft 357 kts 151°
2026-05-04 17:39 45.29738 9.68243 14381 ft 378 kts 151°
2026-05-04 17:39 45.27452 9.70258 14474 ft 395 kts 150°
2026-05-04 17:39 45.25080 9.72357 14588 ft 411 kts 150°
2026-05-04 17:40 45.22613 9.74546 14752 ft 423 kts 150°
2026-05-04 17:40 45.20140 9.76744 15188 ft 426 kts 150°
2026-05-04 17:40 45.17626 9.78978 15753 ft 427 kts 150°
2026-05-04 17:40 45.15118 9.81204 16332 ft 427 kts 150°
2026-05-04 17:41 45.12603 9.83431 16944 ft 426 kts 150°
2026-05-04 17:41 45.10088 9.85653 17573 ft 426 kts 150°
2026-05-04 17:41 45.07541 9.87896 17746 ft 437 kts 150°
2026-05-04 17:41 45.04948 9.90174 18019 ft 443 kts 150°
2026-05-04 17:42 45.02374 9.92440 19038 ft 426 kts 150°
2026-05-04 17:42 44.99920 9.94634 20159 ft 412 kts 148°
2026-05-04 17:42 44.97806 9.97281 20870 ft 414 kts 132°
2026-05-04 17:42 44.96191 10.00644 21426 ft 418 kts 123°
2026-05-04 17:43 44.94679 10.04160 21947 ft 420 kts 123°
2026-05-04 17:43 44.93175 10.07703 22434 ft 422 kts 123°
2026-05-04 17:43 44.91663 10.11269 22901 ft 425 kts 123°
2026-05-04 17:43 44.90141 10.14842 23354 ft 427 kts 123°
2026-05-04 17:44 44.88599 10.18439 23770 ft 430 kts 123°
2026-05-04 17:44 44.87045 10.22048 24128 ft 433 kts 123°
2026-05-04 17:44 44.85493 10.25638 24468 ft 435 kts 124°
2026-05-04 17:44 44.83913 10.29286 24805 ft 438 kts 124°
2026-05-04 17:45 44.82320 10.32959 25196 ft 441 kts 123°
2026-05-04 17:45 44.80717 10.36655 25518 ft 444 kts 123°
2026-05-04 17:45 44.79105 10.40378 25852 ft 446 kts 123°
2026-05-04 17:45 44.77490 10.44104 26161 ft 449 kts 124°
2026-05-04 17:46 44.75857 10.47865 26479 ft 451 kts 124°
2026-05-04 17:46 44.74215 10.51643 26805 ft 454 kts 124°
2026-05-04 17:46 44.72564 10.55435 27107 ft 456 kts 124°
2026-05-04 17:46 44.70906 10.59236 27400 ft 459 kts 124°
2026-05-04 17:47 44.69234 10.63062 27679 ft 461 kts 124°
2026-05-04 17:47 44.67545 10.66922 27913 ft 465 kts 124°
2026-05-04 17:47 44.65867 10.70750 28161 ft 468 kts 124°
2026-05-04 17:47 44.64162 10.74632 28442 ft 470 kts 124°
2026-05-04 17:48 44.62439 10.78553 28707 ft 472 kts 124°
2026-05-04 17:48 44.60712 10.82482 28960 ft 474 kts 124°
2026-05-04 17:48 44.58973 10.86422 29203 ft 476 kts 124°
2026-05-04 17:48 44.57224 10.90374 29442 ft 479 kts 124°
2026-05-04 17:49 44.55468 10.94346 29668 ft 481 kts 124°
2026-05-04 17:49 44.53725 10.98277 29907 ft 482 kts 124°
2026-05-04 17:49 44.51953 11.02269 30226 ft 482 kts 124°
2026-05-04 17:49 44.50200 11.06239 30485 ft 482 kts 122°
2026-05-04 17:50 44.48709 11.10453 30753 ft 484 kts 115°
2026-05-04 17:50 44.47409 11.14807 31025 ft 484 kts 115°
2026-05-04 17:50 44.46103 11.19161 31312 ft 484 kts 115°
2026-05-04 17:50 44.44799 11.23491 31568 ft 484 kts 115°
2026-05-04 17:51 44.43488 11.27825 31682 ft 485 kts 115°
2026-05-04 17:51 44.42187 11.32105 31851 ft 487 kts 115°
2026-05-04 17:51 44.40857 11.36472 32107 ft 487 kts 115°
2026-05-04 17:51 44.39532 11.40823 32378 ft 488 kts 115°
2026-05-04 17:52 44.38205 11.45182 32656 ft 488 kts 115°
2026-05-04 17:52 44.36874 11.49546 32915 ft 488 kts 115°
2026-05-04 17:52 44.35541 11.53901 33159 ft 488 kts 115°
2026-05-04 17:52 44.34081 11.58191 33306 ft 489 kts 121°
2026-05-04 17:53 44.32462 11.62375 33445 ft 491 kts 121°
2026-05-04 17:53 44.30833 11.66580 33590 ft 493 kts 121°
2026-05-04 17:53 44.29199 11.70789 33709 ft 494 kts 121°
2026-05-04 17:53 44.27585 11.74936 33833 ft 495 kts 121°
2026-05-04 17:54 44.25942 11.79161 33958 ft 496 kts 121°
2026-05-04 17:54 44.24298 11.83386 34085 ft 496 kts 121°
2026-05-04 17:54 44.22651 11.87609 34206 ft 496 kts 121°
2026-05-04 17:54 44.21007 11.91826 34305 ft 497 kts 121°
2026-05-04 17:55 44.19356 11.96051 34422 ft 497 kts 121°
2026-05-04 17:55 44.17699 12.00286 34541 ft 497 kts 121°
2026-05-04 17:55 44.16043 12.04508 34651 ft 497 kts 121°
2026-05-04 17:55 44.14382 12.08736 34785 ft 497 kts 121°
2026-05-04 17:56 44.12745 12.12895 34895 ft 497 kts 121°
2026-05-04 17:56 44.11084 12.17109 35008 ft 497 kts 121°
2026-05-04 17:56 44.09423 12.21318 35147 ft 496 kts 121°
2026-05-04 17:56 44.07764 12.25517 35261 ft 496 kts 121°
2026-05-04 17:57 44.06102 12.29719 35389 ft 496 kts 121°
2026-05-04 17:57 44.04440 12.33917 35512 ft 496 kts 121°
2026-05-04 17:57 44.02777 12.38113 35615 ft 495 kts 121°
2026-05-04 17:57 44.01114 12.42302 35734 ft 495 kts 121°
2026-05-04 17:58 43.99472 12.46425 35853 ft 494 kts 121°
2026-05-04 17:58 43.97806 12.50595 35976 ft 494 kts 121°
2026-05-04 17:58 43.96140 12.54763 36104 ft 493 kts 121°
2026-05-04 17:58 43.94484 12.58905 36235 ft 493 kts 121°
2026-05-04 17:59 43.92821 12.63063 36358 ft 492 kts 121°
2026-05-04 17:59 43.91159 12.67212 36498 ft 492 kts 121°
2026-05-04 17:59 43.87837 12.75483 36741 ft 492 kts 121°
2026-05-04 18:00 43.86170 12.79620 36882 ft 492 kts 121°
2026-05-04 18:00 43.84501 12.83752 37040 ft 491 kts 121°
2026-05-04 18:00 43.82852 12.87832 37079 ft 493 kts 121°
2026-05-04 18:01 43.79485 12.96141 37078 ft 498 kts 121°
2026-05-04 18:01 43.76081 13.04521 37078 ft 501 kts 121°
2026-05-04 18:02 43.70951 13.17104 37083 ft 500 kts 121°
2026-05-04 18:02 43.67535 13.25453 37085 ft 499 kts 121°
2026-05-04 18:03 43.64139 13.33744 37085 ft 499 kts 121°
2026-05-04 18:03 43.60710 13.42068 37067 ft 500 kts 121°
2026-05-04 18:04 43.57587 13.50642 37061 ft 502 kts 112°
2026-05-04 18:05 43.54084 13.62502 37070 ft 502 kts 112°
2026-05-04 18:05 43.50993 13.72840 37077 ft 502 kts 112°
2026-05-04 18:06 43.46997 13.86156 37088 ft 502 kts 112°
2026-05-04 18:06 43.44339 13.94985 37096 ft 502 kts 112°
2026-05-04 18:07 43.42112 14.02357 37094 ft 502 kts 112°
2026-05-04 18:07 43.39000 14.12650 37096 ft 502 kts 112°
2026-05-04 18:08 43.36319 14.21502 37097 ft 502 kts 113°
2026-05-04 18:08 43.34084 14.28837 37106 ft 501 kts 112°
2026-05-04 18:09 43.28675 14.46466 37089 ft 502 kts 112°
2026-05-04 18:10 43.25962 14.55287 37091 ft 502 kts 112°
2026-05-04 18:10 43.23264 14.64029 37092 ft 502 kts 113°
2026-05-04 18:11 43.20529 14.72846 37101 ft 502 kts 113°
2026-05-04 18:11 43.17785 14.81635 37100 ft 502 kts 113°
2026-05-04 18:12 43.15037 14.90434 37099 ft 503 kts 113°
2026-05-04 18:12 43.12291 14.99226 37106 ft 502 kts 113°
2026-05-04 18:13 43.09555 15.07949 37113 ft 502 kts 113°
2026-05-04 18:14 43.05412 15.21072 37105 ft 501 kts 112°
2026-05-04 18:14 43.02981 15.30007 37114 ft 501 kts 108°
2026-05-04 18:15 42.98728 15.48023 37116 ft 500 kts 108°
2026-05-04 18:16 42.96470 15.56975 37115 ft 499 kts 109°
2026-05-04 18:16 42.94164 15.65920 37111 ft 500 kts 108°
2026-05-04 18:17 42.90751 15.79258 37115 ft 499 kts 108°
2026-05-04 18:18 42.87329 15.92644 37118 ft 499 kts 108°
2026-05-04 18:18 42.85029 16.01565 37126 ft 499 kts 108°
2026-05-04 18:19 42.81579 16.14848 37128 ft 498 kts 108°
2026-05-04 18:19 42.79277 16.23721 37131 ft 498 kts 108°
2026-05-04 18:20 42.76967 16.32597 37131 ft 497 kts 108°
2026-05-04 18:20 42.74655 16.41441 37139 ft 496 kts 108°
2026-05-04 18:21 42.72349 16.50220 37139 ft 496 kts 108°
2026-05-04 18:21 42.70018 16.59019 37136 ft 495 kts 108°
2026-05-04 18:22 42.67683 16.67823 37135 ft 495 kts 108°
2026-05-04 18:22 42.65354 16.76605 37139 ft 495 kts 108°
2026-05-04 18:23 42.63055 16.85261 37118 ft 485 kts 108°
2026-05-04 18:23 42.60762 16.93831 37120 ft 483 kts 108°
2026-05-04 18:24 42.58461 17.02388 37122 ft 483 kts 108°
2026-05-04 18:24 42.56164 17.10913 37125 ft 481 kts 108°
2026-05-04 18:25 42.54189 17.19470 37128 ft 477 kts 97°
2026-05-04 18:25 42.53861 17.28359 37127 ft 472 kts 85°
2026-05-04 18:26 42.54048 17.37248 37131 ft 468 kts 85°
2026-05-04 18:26 42.54199 17.45960 37124 ft 460 kts 85°
2026-05-04 18:27 42.54348 17.54616 37134 ft 458 kts 85°
2026-05-04 18:27 42.53825 17.63182 37134 ft 463 kts 97°
2026-05-04 18:28 42.52741 17.71780 37132 ft 463 kts 97°
2026-05-04 18:28 42.51674 17.80379 37147 ft 463 kts 96°
2026-05-04 18:29 42.50607 17.88981 37148 ft 463 kts 96°
2026-05-04 18:29 42.49539 17.97515 37123 ft 464 kts 97°
2026-05-04 18:30 42.47791 18.10499 37105 ft 471 kts 105°
2026-05-04 18:31 42.45189 18.18681 37116 ft 476 kts 113°
2026-05-04 18:31 42.42375 18.26807 37116 ft 477 kts 113°
2026-05-04 18:32 42.39539 18.34923 37121 ft 478 kts 113°
2026-05-04 18:32 42.36722 18.43012 37140 ft 479 kts 113°
2026-05-04 18:33 42.33897 18.51148 37148 ft 479 kts 113°
2026-05-04 18:33 42.31057 18.59296 37152 ft 479 kts 113°
2026-05-04 18:34 42.28208 18.67417 37142 ft 479 kts 113°
2026-05-04 18:34 42.25345 18.75548 37133 ft 480 kts 113°
2026-05-04 18:35 42.22497 18.83616 37141 ft 480 kts 113°
2026-05-04 18:35 42.19626 18.91747 37136 ft 480 kts 113°
2026-05-04 18:36 42.16751 18.99856 37136 ft 480 kts 113°
2026-05-04 18:36 42.13916 19.07818 37134 ft 480 kts 113°
2026-05-04 18:37 42.11032 19.15914 37150 ft 480 kts 113°
2026-05-04 18:37 42.08158 19.23953 37147 ft 480 kts 113°
2026-05-04 18:38 42.05258 19.32024 37142 ft 479 kts 113°
2026-05-04 18:38 42.02366 19.40087 37141 ft 479 kts 113°
2026-05-04 18:39 41.99488 19.48079 37156 ft 478 kts 114°
2026-05-04 18:39 41.96580 19.56113 37157 ft 478 kts 114°
2026-05-04 18:40 41.93675 19.64118 37151 ft 477 kts 114°
2026-05-04 18:40 41.90763 19.72112 37157 ft 477 kts 114°
2026-05-04 18:41 41.87853 19.80094 37170 ft 477 kts 114°
2026-05-04 18:41 41.84954 19.88033 37164 ft 477 kts 114°
2026-05-04 18:42 41.82037 19.95997 37166 ft 477 kts 114°
2026-05-04 18:42 41.79097 20.03966 37164 ft 477 kts 114°
2026-05-04 18:43 41.76154 20.11922 37170 ft 477 kts 114°
2026-05-04 18:43 41.73210 20.19886 37183 ft 477 kts 114°
2026-05-04 18:44 41.70297 20.27775 37170 ft 477 kts 114°
2026-05-04 18:44 41.67349 20.35715 37171 ft 476 kts 114°
2026-05-04 18:45 41.64392 20.43632 37171 ft 476 kts 114°
2026-05-04 18:45 41.61429 20.51552 37180 ft 476 kts 114°
2026-05-04 18:46 41.58467 20.59459 37172 ft 477 kts 114°
2026-05-04 18:46 41.55491 20.67364 37167 ft 477 kts 114°
2026-05-04 18:47 41.52510 20.75258 37160 ft 477 kts 114°
2026-05-04 18:47 41.49540 20.83101 37162 ft 477 kts 114°
2026-05-04 18:48 41.46551 20.91001 37140 ft 478 kts 114°
2026-05-04 18:48 41.46045 20.92334 37140 ft 478 kts 114°
2026-05-04 18:49 41.40314 21.07364 37132 ft 480 kts 114°
2026-05-04 18:49 41.37247 21.15388 37149 ft 480 kts 114°
2026-05-04 18:50 41.34218 21.23293 37142 ft 479 kts 114°
2026-05-04 18:50 41.31188 21.31186 37141 ft 479 kts 114°
2026-05-04 18:51 41.28158 21.39062 37135 ft 479 kts 114°
2026-05-04 18:51 41.25134 21.46878 37133 ft 479 kts 114°
2026-05-04 18:52 41.22080 21.54734 37130 ft 479 kts 114°
2026-05-04 18:52 41.19027 21.62594 37128 ft 479 kts 114°
2026-05-04 18:53 41.15975 21.70430 37126 ft 478 kts 115°
2026-05-04 18:53 41.12915 21.78265 37115 ft 479 kts 115°
2026-05-04 18:54 41.09872 21.86036 37135 ft 478 kts 115°
2026-05-04 18:54 41.06538 21.93666 37127 ft 481 kts 124°
2026-05-04 18:55 41.02522 22.00717 37120 ft 479 kts 125°
2026-05-04 18:55 40.96495 22.11278 37124 ft 480 kts 124°
2026-05-04 18:56 40.92502 22.18283 37141 ft 480 kts 124°
2026-05-04 18:56 40.88491 22.25293 37126 ft 479 kts 125°
2026-05-04 18:57 40.84469 22.32291 37116 ft 478 kts 125°
2026-05-04 18:57 40.80458 22.39264 37106 ft 478 kts 125°
2026-05-04 18:58 40.76460 22.46195 37108 ft 478 kts 125°
2026-05-04 18:58 40.72439 22.53147 37112 ft 477 kts 125°
2026-05-04 18:59 40.68413 22.60108 37099 ft 477 kts 125°
2026-05-04 18:59 40.64387 22.67042 37105 ft 477 kts 125°
2026-05-04 19:00 40.60384 22.73928 37103 ft 477 kts 125°
2026-05-04 19:00 40.56358 22.80845 37122 ft 477 kts 126°
2026-05-04 19:01 40.52328 22.87752 37111 ft 476 kts 126°
2026-05-04 19:01 40.48302 22.94624 37109 ft 475 kts 126°
2026-05-04 19:02 40.44090 23.01312 37105 ft 476 kts 132°
2026-05-04 19:02 40.39577 23.07565 37106 ft 476 kts 132°
2026-05-04 19:03 40.35019 23.13853 37124 ft 475 kts 132°
2026-05-04 19:03 40.30477 23.20106 37124 ft 474 kts 132°
2026-05-04 19:04 40.25925 23.26352 37124 ft 473 kts 132°
2026-05-04 19:04 40.21422 23.32533 37122 ft 473 kts 132°
2026-05-04 19:05 40.16891 23.38762 37114 ft 473 kts 132°
2026-05-04 19:05 40.12354 23.44978 37122 ft 473 kts 133°
2026-05-04 19:06 40.07806 23.51177 37114 ft 472 kts 133°
2026-05-04 19:06 40.03261 23.57357 37114 ft 472 kts 133°
2026-05-04 19:07 39.98740 23.63497 37113 ft 472 kts 133°
2026-05-04 19:07 39.94194 23.69664 37114 ft 472 kts 133°
2026-05-04 19:08 39.89632 23.75834 37124 ft 473 kts 133°
2026-05-04 19:08 39.85077 23.81990 37117 ft 473 kts 133°
2026-05-04 19:09 39.80506 23.88149 37114 ft 473 kts 133°
2026-05-04 19:09 39.75971 23.94249 37112 ft 473 kts 133°
2026-05-04 19:10 39.71396 24.00405 37110 ft 473 kts 133°
2026-05-04 19:10 39.66829 24.06535 37109 ft 473 kts 133°
2026-05-04 19:11 39.62244 24.12656 37112 ft 473 kts 133°
2026-05-04 19:11 39.57689 24.18723 37111 ft 474 kts 133°
2026-05-04 19:12 39.50797 24.27901 37105 ft 474 kts 133°
2026-05-04 19:13 39.46198 24.34009 37109 ft 474 kts 133°
2026-05-04 19:13 39.42366 24.39081 37120 ft 474 kts 133°
2026-05-04 19:14 39.37005 24.46161 37113 ft 475 kts 133°
2026-05-04 19:14 39.32383 24.52266 37114 ft 475 kts 133°
2026-05-04 19:15 39.28575 24.57361 37113 ft 475 kts 132°
2026-05-04 19:15 39.23214 24.64554 37111 ft 476 kts 133°
2026-05-04 19:16 39.19399 24.69652 37112 ft 476 kts 133°
2026-05-04 19:16 39.14794 24.75783 37114 ft 476 kts 133°
2026-05-04 19:17 39.10183 24.81890 37118 ft 476 kts 133°
2026-05-04 19:17 39.05561 24.87920 37116 ft 476 kts 133°
2026-05-04 19:18 39.00883 24.93949 37116 ft 476 kts 134°
2026-05-04 19:18 38.96201 24.99986 37110 ft 477 kts 134°
2026-05-04 19:19 38.91529 25.06028 37119 ft 477 kts 133°
2026-05-04 19:19 38.86845 25.12074 37122 ft 478 kts 134°
2026-05-04 19:20 38.82182 25.18059 37116 ft 478 kts 134°
2026-05-04 19:20 38.77480 25.24091 37118 ft 478 kts 134°
2026-05-04 19:21 38.72778 25.30122 37126 ft 478 kts 134°
2026-05-04 19:21 38.68069 25.36145 37133 ft 479 kts 134°
2026-05-04 19:22 38.63386 25.42114 37124 ft 480 kts 134°
2026-05-04 19:22 38.58652 25.48133 37123 ft 480 kts 134°
2026-05-04 19:23 38.53925 25.54146 37120 ft 480 kts 134°